STARLINK-32398, 61624

Orbit data source: Space-Track

STARLINK-32398, 61624 is a payload satellite owned by SpaceX/Seattle (US) in LEO that was launched on Wed, 23 Oct 2024 UTC via an FALCON 9 launch vehicle from the Air Force Eastern Test Range (AFETR). Payload-class satellites include a variety of spacecraft equipped with specific instruments for various scientific and technological missions. These include communications satellites like Starlink; space stations such as the ISS; scientific satellites like the Hubble; Earth observation satellites from companies like Planet Labs, Umbra, and HawkEye 360; GPS; miniature CubeSats for education and research; and military/defense satellites.

Loading next visibility...
Identifier
61624, 2024-191D
Orbit
LEO
Country
Flag of USUS
Related business
Manufacturer
SpaceX/Seattle
Mission
Operational Commercial Communications
Bus & Motor
STARLINK V2M, Unknown motor
Mass
730 kg wet, ~700 kg dry
Launch date (UTC)
2024-10-23 (2 years ago)
Launch vehicle
FALCON 9
Launch site
Air Force Eastern Test Range (AFETR)
Object type
Payload
Rocket body
Debris
Shape & HBR
Box + 2 Pan, 17.7 m
Radar Cross Section
33.884 m², Large (>1 m²)

Expand to show TLE details & history
Last TLE update: 22 hours ago

TLE from 22 hours ago
0 STARLINK-32398
1 61624U 24191D   26163.22252001  .00000342  00000-0  21953-4 0  9991
2 61624  43.0041 340.6625 0000645 258.6585 101.4195 15.27573742 91995
Epoch: 2026-06-12T05:20Z
TLE epoch observation values (Epoch: 2026-06-12T05:20:25.728Z)
Latitude
0.00002°
Longitude
0.00026°
Altitude
482.931 km
Speed
7.626 km/s
True Right ascension
22h 42m 39s
True Declination
0° 00' 00"
Sunlit
Object was in daylight at epoch
Visualization orbit readout
Latitude
Unknown
Longitude
Unknown
Altitude
Unknown
Speed
Unknown
Apparent Right ascension
Unknown
Apparent Declination
Unknown
Sunlit
N/A
Visualization observer readout
Local Sidereal Time
13:55:12
Azimuth
Unknown
Elevation
Unknown
Doppler factor
Unknown
Orbital elements
Apogee altitude
485.455 km
Perigee altitude
484.57 km
Semi-major axis
6,863.149 km
Eccentricity
0.00006
Inclination
43.0041°
RAAN
340.6625°
Arg. of periapsis
258.6585°
True anomaly
101.42674°
Mean anomaly
101.4195°
Eccentric anomaly
101.42312°
Mean motion
3.81731 °/min
Orbital period
94.31 mins
BSTAR
0.000021953
Loading maneuver chart data...
Computing Atmospheric mass density...
Loading historical data...
Loading historical data...
Loading historical data...
Loading historical data...
Loading historical data...
Loading historical data...
Loading historical data...

Documentation

Showing up to 5 results
|